,,,PA_Meas_PMT16A,,PR_Meas_QMR101_102,,RH_Meas_QMH101,,SR_Meas_QMS101,,TA_Meas_QMH101,,GenWind,,GenWind,
date,time,status,PA,status,PR,status,RH,status,SR,status,TA,status,DirAvg,status,SpdAvg,
2008-12-22, 00:00:04,VALID,1002.6,VALID,0,VALID,90.1352,VALID,0,VALID,25.5532,VALID,307,VALID,0.0148437,
2008-12-22, 00:01:04,VALID,1002.57,VALID,0,VALID,90.2649,VALID,0,VALID,25.5142,VALID,307,VALID,0,
2008-12-22, 00:02:04,VALID,1002.57,VALID,0,VALID,90.4251,VALID,0,VALID,25.4753,VALID,307,VALID,0,
2008-12-22, 00:03:04,VALID,1002.54,VALID,0,VALID,90.5319,VALID,0,VALID,25.4363,VALID,307,VALID,0,
2008-12-22, 00:04:04,VALID,1002.55,VALID,0,VALID,90.7074,VALID,0,VALID,25.4169,VALID,307,VALID,0.0664063,
2008-12-22, 00:05:04,VALID,1002.54,VALID,0,VALID,90.8447,VALID,0,VALID,25.3779,VALID,307,VALID,0,
2008-12-22, 00:06:04,VALID,1002.49,VALID,0,VALID,91.0278,VALID,0,VALID,25.3779,VALID,307,VALID,0,
2008-12-22, 00:07:04,VALID,1002.5,VALID,0,VALID,91.2033,VALID,0,VALID,25.339,VALID,307,VALID,0,
2008-12-22, 00:08:04,VALID,1002.45,VALID,0,VALID,91.2414,VALID,0,VALID,25.3195,VALID,307,VALID,0.0957031,
2008-12-22, 00:09:04,VALID,1002.43,VALID,0,VALID,91.3787,VALID,0,VALID,25.2806,VALID,307,VALID,0.173047,
2008-12-22, 00:10:04,VALID,1002.41,VALID,0,VALID,91.4932,VALID,0,VALID,25.263,VALID,307,VALID,0.150391,
2008-12-22, 00:11:04,VALID,1002.38,VALID,0,VALID,91.6152,VALID,0,VALID,25.2221,VALID,307,VALID,0.290234,
2008-12-22, 00:12:04,VALID,1002.33,VALID,0,VALID,91.7449,VALID,0,VALID,25.1832,VALID,307,VALID,0.120312,
2008-12-22, 00:13:04,VALID,1002.33,VALID,0,VALID,91.8288,VALID,0,VALID,25.1637,VALID,307,VALID,0.0394531,
2008-12-22, 00:14:04,VALID,1002.31,VALID,0,VALID,91.9433,VALID,0,VALID,25.1053,VALID,307,VALID,0,
2008-12-22, 00:15:04,VALID,1002.27,VALID,0,VALID,92.0348,VALID,0,VALID,25.1072,VALID,307,VALID,0,
2008-12-22, 00:16:04,VALID,1002.26,VALID,0,VALID,92.0424,VALID,0,VALID,25.0469,VALID,307,VALID,0.00351562,
2008-12-22, 00:17:04,VALID,1002.28,VALID,0,VALID,92.1569,VALID,0,VALID,25.0274,VALID,307,VALID,0.436719,
2008-12-22, 00:18:04,VALID,1002.26,VALID,0,VALID,92.2255,VALID,0,VALID,25.0079,VALID,307,VALID,0.116406,
2008-12-22, 00:19:04,VALID,1002.25,VALID,0,VALID,92.3705,VALID,0,VALID,24.9885,VALID,307,VALID,0.359766,
2008-12-22, 00:20:04,VALID,1002.26,VALID,0,VALID,92.4697,VALID,0,VALID,24.9885,VALID,307,VALID,0.171094,
2008-12-22, 00:21:04,VALID,1002.22,VALID,0,VALID,92.4925,VALID,0,VALID,25.0079,VALID,316,VALID,0.523438,
2008-12-22, 00:22:04,VALID,1002.17,VALID,0,VALID,92.4468,VALID,0,VALID,25.0255,VALID,336,VALID,0.608594,
2008-12-22, 00:23:04,VALID,1002.2,VALID,0,VALID,92.34,VALID,0,VALID,25.0858,VALID,338,VALID,0.419922,
2008-12-22, 00:24:04,VALID,1002.2,VALID,0,VALID,92.2789,VALID,0,VALID,25.1248,VALID,342,VALID,0.436328,
2008-12-22, 00:25:04,VALID,1002.18,VALID,0,VALID,92.1264,VALID,0,VALID,25.1442,VALID,343,VALID,0.303125,
2008-12-22, 00:26:04,VALID,1002.14,VALID,0,VALID,91.989,VALID,0,VALID,25.2027,VALID,342,VALID,0.387109,
2008-12-22, 00:27:04,VALID,1002.15,VALID,0,VALID,91.8212,VALID,0,VALID,25.2221,VALID,341,VALID,0.288281,
2008-12-22, 00:28:04,VALID,1002.13,VALID,0,VALID,91.6305,VALID,0,VALID,25.2611,VALID,341,VALID,0.333984,
2008-12-22, 00:29:04,VALID,1002.13,VALID,0,VALID,91.4779,VALID,0,VALID,25.2806,VALID,341,VALID,0.389844,
2008-12-22, 00:30:04,VALID,1002.13,VALID,0,VALID,91.3024,VALID,0,VALID,25.339,VALID,343,VALID,0.522266,
2008-12-22, 00:31:04,VALID,1002.13,VALID,0,VALID,91.127,VALID,0,VALID,25.3584,VALID,326,VALID,0.463672,
2008-12-22, 00:32:04,VALID,1002.12,VALID,0,VALID,90.8981,VALID,0,VALID,25.3974,VALID,347,VALID,0.634375,
2008-12-22, 00:33:04,VALID,1002.14,VALID,0,VALID,90.7989,VALID,0,VALID,25.4169,VALID,347,VALID,0.394922,
2008-12-22, 00:34:04,VALID,1002.15,VALID,0,VALID,90.776,VALID,0,VALID,25.4169,VALID,347,VALID,0.332812,
2008-12-22, 00:35:04,VALID,1002.13,VALID,0,VALID,90.7608,VALID,0,VALID,25.4169,VALID,351,VALID,0.385156,
2008-12-22, 00:36:04,VALID,1002.13,VALID,0,VALID,90.8142,VALID,0,VALID,25.3974,VALID,353,VALID,0.260156,
2008-12-22, 00:37:04,VALID,1002.14,VALID,0,VALID,90.8218,VALID,0,VALID,25.3779,VALID,348,VALID,0.430078,
2008-12-22, 00:38:04,VALID,1002.14,VALID,0,VALID,90.8447,VALID,0,VALID,25.3584,VALID,345,VALID,0,
2008-12-22, 00:39:04,VALID,1002.15,VALID,0,VALID,90.9515,VALID,0,VALID,25.339,VALID,345,VALID,0.000390625,
2008-12-22, 00:40:04,VALID,1002.15,VALID,0,VALID,91.0202,VALID,0,VALID,25.339,VALID,290,VALID,0.122266,
2008-12-22, 00:41:04,VALID,1002.13,VALID,0,VALID,91.0659,VALID,0,VALID,25.3195,VALID,290,VALID,0,
2008-12-22, 00:42:04,VALID,1002.12,VALID,0,VALID,91.1041,VALID,0,VALID,25.3195,VALID,290,VALID,0.0449219,
2008-12-22, 00:43:04,VALID,1002.1,VALID,0,VALID,91.1575,VALID,0,VALID,25.3195,VALID,290,VALID,0,
2008-12-22, 00:44:04,VALID,1002.06,VALID,0,VALID,91.1956,VALID,0,VALID,25.2981,VALID,298,VALID,0.265625,
2008-12-22, 00:45:04,VALID,1002.08,VALID,0,VALID,91.1499,VALID,0,VALID,25.339,VALID,348,VALID,0.720312,
2008-12-22, 00:46:04,VALID,1002.06,VALID,0,VALID,91.0202,VALID,0,VALID,25.3798,VALID,355,VALID,0.707422,
2008-12-22, 00:47:04,VALID,1002.02,VALID,0,VALID,90.9057,VALID,0,VALID,25.339,VALID,348,VALID,0.750781,
2008-12-22, 00:48:04,VALID,1002,VALID,0,VALID,90.8218,VALID,0,VALID,25.3195,VALID,351,VALID,0.550781,
2008-12-22, 00:49:04,VALID,1001.98,VALID,0,VALID,90.8523,VALID,0,VALID,25.2806,VALID,351,VALID,0.50625,
2008-12-22, 00:50:04,VALID,1001.97,VALID,0,VALID,90.982,VALID,0,VALID,25.2007,VALID,351,VALID,0.532031,
2008-12-22, 00:51:04,VALID,1001.93,VALID,0,VALID,91.1422,VALID,0,VALID,25.1832,VALID,351,VALID,0.63125,
2008-12-22, 00:52:04,VALID,1001.92,VALID,0,VALID,91.3024,VALID,0,VALID,25.1442,VALID,350,VALID,0.779688,
2008-12-22, 00:53:04,VALID,1001.88,VALID,0,VALID,91.4626,VALID,0,VALID,25.1053,VALID,350,VALID,0.841016,
2008-12-22, 00:54:04,VALID,1001.82,VALID,0,VALID,91.4626,VALID,0,VALID,25.0858,VALID,349,VALID,0.777734,
2008-12-22, 00:55:04,VALID,1001.8,VALID,0,VALID,91.4016,VALID,0,VALID,25.0858,VALID,349,VALID,0.712891,
2008-12-22, 00:56:04,VALID,1001.77,VALID,0,VALID,91.3787,VALID,0,VALID,25.1267,VALID,347,VALID,0.952344,
2008-12-22, 00:57:04,VALID,1001.72,VALID,0,VALID,91.188,VALID,0,VALID,25.1442,VALID,342,VALID,0.791797,
2008-12-22, 00:58:04,VALID,1001.7,VALID,0,VALID,91.0125,VALID,0,VALID,25.1832,VALID,341,VALID,0.714453,
2008-12-22, 00:59:04,VALID,1001.69,VALID,0,VALID,90.7532,VALID,0,VALID,25.2027,VALID,343,VALID,0.763281,
2008-12-22, 01:00:04,VALID,1001.65,VALID,0,VALID,90.5472,VALID,0,VALID,25.2221,VALID,357,VALID,0.654688,
2008-12-22, 01:01:04,VALID,1001.64,VALID,0,VALID,90.4175,VALID,0,VALID,25.2806,VALID,356,VALID,0.776563,
2008-12-22, 01:02:04,VALID,1001.6,VALID,0,VALID,90.2039,VALID,0,VALID,25.3195,VALID,356,VALID,0.58125,
2008-12-22, 01:03:04,VALID,1001.62,VALID,0,VALID,90.0818,VALID,0,VALID,25.3195,VALID,348,VALID,0.682813,
2008-12-22, 01:04:04,VALID,1001.59,VALID,0,VALID,89.8758,VALID,0,VALID,25.3779,VALID,353,VALID,0.494531,
2008-12-22, 01:05:04,VALID,1001.57,VALID,0,VALID,89.7385,VALID,0,VALID,25.3565,VALID,353,VALID,0.548437,
2008-12-22, 01:06:04,VALID,1001.56,VALID,0,VALID,89.7309,VALID,0,VALID,25.3779,VALID,345,VALID,0.472656,
2008-12-22, 01:07:04,VALID,1001.57,VALID,0,VALID,89.7233,VALID,0,VALID,25.337,VALID,344,VALID,0.523047,
2008-12-22, 01:08:04,VALID,1001.52,VALID,0,VALID,89.647,VALID,0,VALID,25.3779,VALID,347,VALID,0.4625,
2008-12-22, 01:09:04,VALID,1001.54,VALID,0,VALID,89.6241,VALID,0,VALID,25.3779,VALID,335,VALID,0.490234,
2008-12-22, 01:10:04,VALID,1001.55,VALID,0,VALID,89.6012,VALID,0,VALID,25.3974,VALID,346,VALID,0.493359,
2008-12-22, 01:11:04,VALID,1001.53,VALID,0,VALID,89.5325,VALID,0,VALID,25.3974,VALID,346,VALID,0.38125,
2008-12-22, 01:12:04,VALID,1001.54,VALID,0,VALID,89.5325,VALID,0,VALID,25.3779,VALID,346,VALID,0.358984,
2008-12-22, 01:13:04,VALID,1001.57,VALID,0,VALID,89.5325,VALID,0,VALID,25.3974,VALID,347,VALID,0.386719,
2008-12-22, 01:14:04,VALID,1001.54,VALID,0,VALID,89.502,VALID,0,VALID,25.3974,VALID,346,VALID,0.427344,
2008-12-22, 01:15:04,VALID,1001.54,VALID,0,VALID,89.4791,VALID,0,VALID,25.3974,VALID,346,VALID,0.41875,
2008-12-22, 01:16:04,VALID,1001.55,VALID,0,VALID,89.441,VALID,0.100563,VALID,25.3955,VALID,346,VALID,0.548828,
2008-12-22, 01:17:04,VALID,1001.57,VALID,0,VALID,89.4944,VALID,0,VALID,25.4169,VALID,355,VALID,0.496484,
2008-12-22, 01:18:04,VALID,1001.52,VALID,0,VALID,89.4028,VALID,0.100563,VALID,25.4363,VALID,338,VALID,0.771484,
2008-12-22, 01:19:04,VALID,1001.49,VALID,0,VALID,89.2045,VALID,0,VALID,25.4558,VALID,337,VALID,0.550391,
2008-12-22, 01:20:04,VALID,1001.47,VALID,0,VALID,89.1282,VALID,0,VALID,25.4753,VALID,4,VALID,0.507813,
2008-12-22, 01:21:04,VALID,1001.43,VALID,0,VALID,89.0519,VALID,0,VALID,25.4948,VALID,3,VALID,0.514453,
2008-12-22, 01:22:04,VALID,1001.41,VALID,0,VALID,88.8459,VALID,0,VALID,25.5746,VALID,338,VALID,0.485938,
2008-12-22, 01:23:04,VALID,1001.39,VALID,0,VALID,88.6934,VALID,0,VALID,25.5727,VALID,335,VALID,0.444141,
2008-12-22, 01:24:04,VALID,1001.36,VALID,0,VALID,88.6094,VALID,0,VALID,25.5921,VALID,353,VALID,0.777734,
2008-12-22, 01:25:04,VALID,1001.34,VALID,0,VALID,88.4874,VALID,0,VALID,25.6116,VALID,354,VALID,0.432031,
2008-12-22, 01:26:04,VALID,1001.31,VALID,0,VALID,88.3806,VALID,0,VALID,25.6311,VALID,353,VALID,0.447266,
2008-12-22, 01:27:04,VALID,1001.33,VALID,0,VALID,88.3348,VALID,0,VALID,25.6116,VALID,352,VALID,0.587109,
2008-12-22, 01:28:04,VALID,1001.28,VALID,0,VALID,88.228,VALID,0,VALID,25.672,VALID,351,VALID,0.48125,
2008-12-22, 01:29:04,VALID,1001.26,VALID,0,VALID,88.167,VALID,0,VALID,25.67,VALID,346,VALID,0.592578,
2008-12-22, 01:30:04,VALID,1001.27,VALID,0,VALID,88.1365,VALID,0,VALID,25.6506,VALID,346,VALID,0.485938,
2008-12-22, 01:31:04,VALID,1001.24,VALID,0,VALID,88.1059,VALID,0,VALID,25.6506,VALID,346,VALID,0.450781,
2008-12-22, 01:32:04,VALID,1001.23,VALID,0,VALID,88.0754,VALID,0,VALID,25.6506,VALID,347,VALID,0.595312,
2008-12-22, 01:33:04,VALID,1001.2,VALID,0,VALID,88.0983,VALID,0,VALID,25.67,VALID,346,VALID,0.335938,
2008-12-22, 01:34:04,VALID,1001.19,VALID,0,VALID,88.0678,VALID,0,VALID,25.6506,VALID,347,VALID,0.311719,
2008-12-22, 01:35:04,VALID,1001.2,VALID,0,VALID,88.0907,VALID,0,VALID,25.6506,VALID,345,VALID,0.486719,
2008-12-22, 01:36:04,VALID,1001.2,VALID,0,VALID,88.2204,VALID,0,VALID,25.6506,VALID,347,VALID,0.114063,
2008-12-22, 01:37:04,VALID,1001.21,VALID,0,VALID,88.1059,VALID,0,VALID,25.6311,VALID,345,VALID,0.533594,
2008-12-22, 01:38:04,VALID,1001.19,VALID,0,VALID,88.1441,VALID,0,VALID,25.6506,VALID,348,VALID,0.335938,
2008-12-22, 01:39:04,VALID,1001.17,VALID,0,VALID,88.0602,VALID,0,VALID,25.67,VALID,344,VALID,0.325,
2008-12-22, 01:40:04,VALID,1001.22,VALID,0,VALID,87.9915,VALID,0,VALID,25.6506,VALID,344,VALID,0.365234,
2008-12-22, 01:41:04,VALID,1001.2,VALID,0,VALID,87.9762,VALID,0,VALID,25.6506,VALID,344,VALID,0,
2008-12-22, 01:42:04,VALID,1001.14,VALID,0,VALID,87.8847,VALID,0,VALID,25.67,VALID,358,VALID,0.641016,
2008-12-22, 01:43:04,VALID,1001.17,VALID,0,VALID,87.8084,VALID,0,VALID,25.67,VALID,344,VALID,0.635156,
2008-12-22, 01:44:04,VALID,1001.15,VALID,0,VALID,87.9076,VALID,0,VALID,25.6681,VALID,351,VALID,0.51875,
2008-12-22, 01:45:04,VALID,1001.17,VALID,0,VALID,87.8389,VALID,0,VALID,25.6486,VALID,351,VALID,0.40625,
2008-12-22, 01:46:04,VALID,1001.14,VALID,0,VALID,87.8847,VALID,0,VALID,25.6311,VALID,351,VALID,0.3875,
2008-12-22, 01:47:04,VALID,1001.12,VALID,0,VALID,87.961,VALID,0,VALID,25.6116,VALID,350,VALID,0.65,
2008-12-22, 01:48:04,VALID,1001.08,VALID,0,VALID,88.1899,VALID,0,VALID,25.5921,VALID,353,VALID,0.341016,
2008-12-22, 01:49:04,VALID,1001.06,VALID,0,VALID,88.2356,VALID,0,VALID,25.5727,VALID,353,VALID,0.554297,
2008-12-22, 01:50:04,VALID,1001.06,VALID,0,VALID,88.2661,VALID,0,VALID,25.5746,VALID,353,VALID,0.407813,
2008-12-22, 01:51:04,VALID,1001.04,VALID,0,VALID,88.3501,VALID,0,VALID,25.5337,VALID,353,VALID,0.651563,
2008-12-22, 01:52:04,VALID,1001.07,VALID,0,VALID,88.5637,VALID,0,VALID,25.5142,VALID,350,VALID,0.5125,
2008-12-22, 01:53:04,VALID,1001.04,VALID,0,VALID,88.6171,VALID,0,VALID,25.4753,VALID,340,VALID,0.801953,
2008-12-22, 01:54:04,VALID,1001.02,VALID,0,VALID,88.6323,VALID,0,VALID,25.4363,VALID,355,VALID,0.705469,
2008-12-22, 01:55:04,VALID,1001.01,VALID,0,VALID,88.6552,VALID,0,VALID,25.4363,VALID,347,VALID,0.46875,
2008-12-22, 01:56:04,VALID,1001.01,VALID,0,VALID,88.7544,VALID,0,VALID,25.4169,VALID,343,VALID,0.423047,
2008-12-22, 01:57:04,VALID,1001,VALID,0,VALID,88.8231,VALID,0,VALID,25.3779,VALID,343,VALID,0.55,
2008-12-22, 01:58:04,VALID,1001.02,VALID,0,VALID,88.8917,VALID,0,VALID,25.3584,VALID,338,VALID,0.420312,
2008-12-22, 01:59:04,VALID,1001,VALID,0,VALID,88.9451,VALID,0,VALID,25.339,VALID,338,VALID,0.339844,
2008-12-22, 02:00:04,VALID,1000.98,VALID,0,VALID,89.0214,VALID,0,VALID,25.339,VALID,338,VALID,0.521484,
2008-12-22, 02:01:04,VALID,1001.01,VALID,0,VALID,89.0824,VALID,0,VALID,25.3,VALID,339,VALID,0.321094,
2008-12-22, 02:02:04,VALID,1001.01,VALID,0,VALID,89.1358,VALID,0,VALID,25.3195,VALID,339,VALID,0.403125,
2008-12-22, 02:03:04,VALID,1001,VALID,0,VALID,89.1435,VALID,0,VALID,25.3409,VALID,339,VALID,0.281641,
2008-12-22, 02:04:04,VALID,1001.01,VALID,0,VALID,89.1282,VALID,0,VALID,25.3409,VALID,337,VALID,0.475391,
2008-12-22, 02:05:04,VALID,1001.01,VALID,0,VALID,89.235,VALID,0,VALID,25.3214,VALID,340,VALID,0.607031,
2008-12-22, 02:06:04,VALID,1001,VALID,0,VALID,89.2503,VALID,0,VALID,25.2806,VALID,345,VALID,0.307422,
2008-12-22, 02:07:04,VALID,1001.02,VALID,0,VALID,89.3113,VALID,0,VALID,25.2611,VALID,345,VALID,0.212891,
2008-12-22, 02:08:04,VALID,1000.98,VALID,0,VALID,89.4028,VALID,0,VALID,25.2611,VALID,345,VALID,0.45,
2008-12-22, 02:09:04,VALID,1001,VALID,0,VALID,89.4334,VALID,0,VALID,25.2611,VALID,346,VALID,0.396094,
2008-12-22, 02:10:04,VALID,1000.99,VALID,0,VALID,89.4944,VALID,0,VALID,25.263,VALID,346,VALID,0.439844,
2008-12-22, 02:11:04,VALID,1001.01,VALID,0,VALID,89.6088,VALID,0,VALID,25.2221,VALID,346,VALID,0.368359,
2008-12-22, 02:12:04,VALID,1000.97,VALID,0,VALID,89.7461,VALID,0,VALID,25.2027,VALID,346,VALID,0.391406,
2008-12-22, 02:13:04,VALID,1000.95,VALID,0,VALID,89.8911,VALID,0,VALID,25.1637,VALID,346,VALID,0.384375,
2008-12-22, 02:14:04,VALID,1000.91,VALID,0,VALID,90.036,VALID,0,VALID,25.1053,VALID,346,VALID,0.428125,
2008-12-22, 02:15:04,VALID,1000.87,VALID,0,VALID,90.1734,VALID,0,VALID,25.0858,VALID,347,VALID,0.474609,
2008-12-22, 02:16:04,VALID,1000.84,VALID,0,VALID,90.3336,VALID,0,VALID,25.0469,VALID,347,VALID,0.40625,
2008-12-22, 02:17:04,VALID,1000.83,VALID,0,VALID,90.4938,VALID,0,VALID,25.0079,VALID,347,VALID,0.441406,
2008-12-22, 02:18:04,VALID,1000.79,VALID,0,VALID,90.6311,VALID,0,VALID,24.969,VALID,347,VALID,0.475,
2008-12-22, 02:19:04,VALID,1000.78,VALID,0,VALID,90.8218,VALID,0,VALID,24.9106,VALID,347,VALID,0.558594,
2008-12-22, 02:20:04,VALID,1000.74,VALID,0,VALID,91.0431,VALID,0,VALID,24.8911,VALID,342,VALID,0.521094,
2008-12-22, 02:21:04,VALID,1000.73,VALID,0,VALID,91.1804,VALID,0,VALID,24.8522,VALID,348,VALID,0.531641,
2008-12-22, 02:22:04,VALID,1000.73,VALID,0,VALID,91.2719,VALID,0,VALID,24.8346,VALID,348,VALID,0.626562,
2008-12-22, 02:23:04,VALID,1000.73,VALID,0,VALID,91.3711,VALID,0,VALID,24.7937,VALID,348,VALID,0.529297,
2008-12-22, 02:24:04,VALID,1000.7,VALID,0,VALID,91.4092,VALID,0,VALID,24.7937,VALID,345,VALID,0.467969,
2008-12-22, 02:25:04,VALID,1000.73,VALID,0,VALID,91.4169,VALID,0,VALID,24.7743,VALID,349,VALID,0.503516,
2008-12-22, 02:26:04,VALID,1000.72,VALID,0,VALID,91.4245,VALID,0,VALID,24.7743,VALID,349,VALID,0.477734,
2008-12-22, 02:27:04,VALID,1000.68,VALID,0,VALID,91.4703,VALID,0,VALID,24.7956,VALID,349,VALID,0.489844,
2008-12-22, 02:28:04,VALID,1000.66,VALID,0,VALID,91.5008,VALID,0,VALID,24.7743,VALID,351,VALID,0.701172,
2008-12-22, 02:29:04,VALID,1000.65,VALID,0,VALID,91.4016,VALID,0,VALID,24.8132,VALID,352,VALID,0.561328,
2008-12-22, 02:30:04,VALID,1000.62,VALID,0,VALID,91.2414,VALID,0,VALID,24.8522,VALID,352,VALID,0.293359,
2008-12-22, 02:31:04,VALID,1000.63,VALID,0,VALID,91.2109,VALID,0,VALID,24.8716,VALID,352,VALID,0.123828,
2008-12-22, 02:32:04,VALID,1000.6,VALID,0,VALID,91.1956,VALID,0,VALID,24.8716,VALID,352,VALID,0.375781,
2008-12-22, 02:33:04,VALID,1000.61,VALID,0,VALID,91.1804,VALID,0,VALID,24.8911,VALID,353,VALID,0,
2008-12-22, 02:34:04,VALID,1000.61,VALID,0,VALID,91.0812,VALID,0,VALID,24.893,VALID,353,VALID,0.0769531,
2008-12-22, 02:35:04,VALID,1000.61,VALID,0,VALID,91.0888,VALID,0,VALID,24.8911,VALID,353,VALID,0.194141,
2008-12-22, 02:36:04,VALID,1000.63,VALID,0,VALID,91.0659,VALID,0,VALID,24.9106,VALID,353,VALID,0.271875,
2008-12-22, 02:37:04,VALID,1000.63,VALID,0,VALID,91.127,VALID,0,VALID,24.9106,VALID,353,VALID,0.35625,
2008-12-22, 02:38:04,VALID,1000.64,VALID,0,VALID,91.2185,VALID,0,VALID,24.9106,VALID,353,VALID,0.273047,
2008-12-22, 02:39:04,VALID,1000.66,VALID,0,VALID,91.1499,VALID,0,VALID,24.8911,VALID,351,VALID,0.573438,
2008-12-22, 02:40:04,VALID,1000.65,VALID,0,VALID,91.1499,VALID,0,VALID,24.8892,VALID,351,VALID,0.408594,
2008-12-22, 02:41:05,VALID,1000.64,VALID,0,VALID,91.1193,VALID,0,VALID,24.9106,VALID,351,VALID,0.437109,
2008-12-22, 02:42:05,VALID,1000.62,VALID,0,VALID,91.0888,VALID,0,VALID,24.93,VALID,351,VALID,0.309375,
2008-12-22, 02:43:05,VALID,1000.61,VALID,0,VALID,91.0431,VALID,0,VALID,24.9087,VALID,351,VALID,0.389062,
2008-12-22, 02:44:05,VALID,1000.6,VALID,0,VALID,90.9744,VALID,0,VALID,24.93,VALID,351,VALID,0.464844,
2008-12-22, 02:45:05,VALID,1000.61,VALID,0,VALID,90.9668,VALID,0.100563,VALID,24.9495,VALID,351,VALID,0.307813,
2008-12-22, 02:46:05,VALID,1000.6,VALID,0,VALID,90.9591,VALID,0,VALID,24.93,VALID,351,VALID,0.245703,
2008-12-22, 02:47:05,VALID,1000.61,VALID,0,VALID,90.982,VALID,0,VALID,24.9106,VALID,351,VALID,0.107422,
2008-12-22, 02:48:05,VALID,1000.63,VALID,0,VALID,91.0583,VALID,0,VALID,24.8911,VALID,351,VALID,0,
2008-12-22, 02:49:05,VALID,1000.64,VALID,0,VALID,91.1804,VALID,0,VALID,24.8716,VALID,351,VALID,0,
2008-12-22, 02:50:05,VALID,1000.64,VALID,0,VALID,91.2567,VALID,0,VALID,24.8503,VALID,351,VALID,0,
2008-12-22, 02:51:05,VALID,1000.64,VALID,0,VALID,91.3024,VALID,0.100563,VALID,24.8327,VALID,351,VALID,0,
2008-12-22, 02:52:05,VALID,1000.64,VALID,0,VALID,91.3787,VALID,0,VALID,24.8113,VALID,351,VALID,0,
2008-12-22, 02:53:05,VALID,1000.63,VALID,0,VALID,91.4245,VALID,0,VALID,24.7919,VALID,351,VALID,0,
2008-12-22, 02:54:05,VALID,1000.61,VALID,0,VALID,91.4169,VALID,0,VALID,24.8132,VALID,351,VALID,0.201172,
2008-12-22, 02:55:05,VALID,1000.6,VALID,0,VALID,91.4855,VALID,0,VALID,24.7937,VALID,351,VALID,0,
2008-12-22, 02:56:05,VALID,1000.58,VALID,0,VALID,91.5466,VALID,0,VALID,24.7937,VALID,351,VALID,0,
2008-12-22, 02:57:05,VALID,1000.59,VALID,0,VALID,91.6152,VALID,0,VALID,24.7743,VALID,351,VALID,0.105469,
2008-12-22, 02:58:05,VALID,1000.6,VALID,0,VALID,91.661,VALID,0,VALID,24.7743,VALID,351,VALID,0.160156,
2008-12-22, 02:59:05,VALID,1000.6,VALID,0,VALID,91.7144,VALID,0,VALID,24.7548,VALID,351,VALID,0.0992187,
2008-12-22, 03:00:05,VALID,1000.59,VALID,0,VALID,91.7983,VALID,0,VALID,24.7548,VALID,351,VALID,0.0386719,
2008-12-22, 03:01:05,VALID,1000.58,VALID,0,VALID,91.8822,VALID,0,VALID,24.7548,VALID,351,VALID,0,
2008-12-22, 03:02:05,VALID,1000.59,VALID,0,VALID,91.9738,VALID,0,VALID,24.7353,VALID,351,VALID,0.145703,
2008-12-22, 03:03:05,VALID,1000.58,VALID,0,VALID,92.0043,VALID,0,VALID,24.7353,VALID,351,VALID,0.409375,
2008-12-22, 03:04:05,VALID,1000.6,VALID,0,VALID,92.0806,VALID,0,VALID,24.7159,VALID,351,VALID,0.326172,
2008-12-22, 03:05:05,VALID,1000.62,VALID,0,VALID,92.195,VALID,0,VALID,24.6964,VALID,351,VALID,0.475391,
2008-12-22, 03:06:05,VALID,1000.63,VALID,0,VALID,92.3018,VALID,0,VALID,24.6574,VALID,351,VALID,0.392969,
2008-12-22, 03:07:05,VALID,1000.39,VALID,0,VALID,92.4773,VALID,0,VALID,24.638,VALID,351,VALID,0.575,
2008-12-22, 03:08:05,VALID,1000.62,VALID,0,VALID,92.5765,VALID,0,VALID,24.638,VALID,351,VALID,0.521484,
2008-12-22, 03:09:05,VALID,1000.63,VALID,0,VALID,92.6604,VALID,0,VALID,24.5777,VALID,351,VALID,0.44375,
2008-12-22, 03:10:05,VALID,1000.64,VALID,0,VALID,92.6909,VALID,0,VALID,24.5796,VALID,351,VALID,0.447266,
2008-12-22, 03:11:05,VALID,1000.64,VALID,0,VALID,92.7748,VALID,0,VALID,24.5406,VALID,346,VALID,0.398438,
2008-12-22, 03:12:05,VALID,1000.62,VALID,0,VALID,92.8816,VALID,0,VALID,24.5406,VALID,346,VALID,0.216406,
2008-12-22, 03:13:05,VALID,1000.63,VALID,0,VALID,92.935,VALID,0,VALID,24.5406,VALID,346,VALID,0.0152344,
2008-12-22, 03:14:05,VALID,1000.64,VALID,0,VALID,92.9808,VALID,0,VALID,24.5601,VALID,346,VALID,0.269531,
2008-12-22, 03:15:05,VALID,1000.64,VALID,0,VALID,93.0037,VALID,0,VALID,24.599,VALID,347,VALID,0.408984,
2008-12-22, 03:16:05,VALID,1000.62,VALID,0,VALID,92.9579,VALID,0,VALID,24.599,VALID,348,VALID,0.518359,
2008-12-22, 03:17:05,VALID,1000.64,VALID,0,VALID,92.8282,VALID,0,VALID,24.638,VALID,348,VALID,0.386328,
2008-12-22, 03:18:05,VALID,1000.63,VALID,0,VALID,92.7367,VALID,0,VALID,24.6574,VALID,348,VALID,0.337891,
2008-12-22, 03:19:05,VALID,1000.6,VALID,0,VALID,92.6909,VALID,0,VALID,24.6574,VALID,348,VALID,0.364453,
2008-12-22, 03:20:05,VALID,1000.63,VALID,0,VALID,92.6756,VALID,0,VALID,24.6185,VALID,348,VALID,0.352734,
2008-12-22, 03:21:05,VALID,1000.64,VALID,0,VALID,92.6833,VALID,0.100563,VALID,24.638,VALID,348,VALID,0.149219,
2008-12-22, 03:22:05,VALID,1000.64,VALID,0,VALID,92.668,VALID,0,VALID,24.5972,VALID,348,VALID,0.122266,
2008-12-22, 03:23:05,VALID,1000.64,VALID,0,VALID,92.7138,VALID,0,VALID,24.6166,VALID,348,VALID,0,
2008-12-22, 03:24:05,VALID,1000.63,VALID,0,VALID,92.6985,VALID,0,VALID,24.6185,VALID,348,VALID,0,
2008-12-22, 03:25:05,VALID,1000.65,VALID,0,VALID,92.7596,VALID,0,VALID,24.6185,VALID,348,VALID,0,
2008-12-22, 03:26:05,VALID,1000.62,VALID,0,VALID,92.7519,VALID,0,VALID,24.638,VALID,348,VALID,0.0238281,
2008-12-22, 03:27:05,VALID,1000.62,VALID,0,VALID,92.7443,VALID,0,VALID,24.638,VALID,348,VALID,0.00429688,
2008-12-22, 03:28:05,VALID,1000.62,VALID,0,VALID,92.7138,VALID,0,VALID,24.638,VALID,348,VALID,0.140234,
2008-12-22, 03:29:05,VALID,1000.62,VALID,0,VALID,92.7138,VALID,0,VALID,24.638,VALID,348,VALID,0.248047,
2008-12-22, 03:30:05,VALID,1000.6,VALID,0,VALID,92.6756,VALID,0,VALID,24.6166,VALID,348,VALID,0.381641,
2008-12-22, 03:31:05,VALID,1000.64,VALID,0,VALID,92.6833,VALID,0,VALID,24.638,VALID,348,VALID,0.203125,
2008-12-22, 03:32:05,VALID,1000.63,VALID,0,VALID,92.6222,VALID,0,VALID,24.5972,VALID,348,VALID,0.254297,
2008-12-22, 03:33:05,VALID,1000.66,VALID,0,VALID,92.6528,VALID,0,VALID,24.6185,VALID,348,VALID,0.308594,
2008-12-22, 03:34:05,VALID,1000.66,VALID,0,VALID,92.6528,VALID,0,VALID,24.599,VALID,348,VALID,0.287109,
2008-12-22, 03:35:05,VALID,1000.66,VALID,0,VALID,92.6909,VALID,0,VALID,24.599,VALID,348,VALID,0.273438,
2008-12-22, 03:36:05,VALID,1000.68,VALID,0,VALID,92.7367,VALID,0,VALID,24.5796,VALID,348,VALID,0.273438,
2008-12-22, 03:37:05,VALID,1000.68,VALID,0,VALID,92.7901,VALID,0,VALID,24.5388,VALID,348,VALID,0.369141,
2008-12-22, 03:38:05,VALID,1000.69,VALID,0,VALID,92.8511,VALID,0,VALID,24.5388,VALID,348,VALID,0.264062,
2008-12-22, 03:39:05,VALID,1000.72,VALID,0,VALID,92.9121,VALID,0,VALID,24.5601,VALID,348,VALID,0.370703,
2008-12-22, 03:40:05,VALID,1000.73,VALID,0,VALID,92.9808,VALID,0,VALID,24.5601,VALID,348,VALID,0.335156,
2008-12-22, 03:41:05,VALID,1000.77,VALID,0,VALID,92.9808,VALID,0,VALID,24.5425,VALID,348,VALID,0.278125,
2008-12-22, 03:42:05,VALID,1000.74,VALID,0,VALID,92.9808,VALID,0,VALID,24.4822,VALID,348,VALID,0.211328,
2008-12-22, 03:43:05,VALID,1000.74,VALID,0,VALID,92.9884,VALID,0,VALID,24.4628,VALID,348,VALID,0.192188,
2008-12-22, 03:44:05,VALID,1000.73,VALID,0,VALID,93.0647,VALID,0,VALID,24.4433,VALID,348,VALID,0.05625,
2008-12-22, 03:45:05,VALID,1000.77,VALID,0,VALID,93.1791,VALID,0,VALID,24.4646,VALID,348,VALID,0.277734,
2008-12-22, 03:46:05,VALID,1000.75,VALID,0,VALID,93.2325,VALID,0,VALID,24.4451,VALID,348,VALID,0.386719,